Location: Beetenbrück
(52.8113°N, 9.5946°E)
Time: 21:23:35
(UTC+00:00)

USA 234 - Pass Details

Date: 14 April 2026
Orbit: 1102 x 1106 km, 123.0° (Epoch: 4 January)

Event Time Altitude Azimuth Distance (km) Brightness Sun altitude
Rises 20:42:30 0° 66° (ENE) 3,926 6.0 -18.9°
Reaches altitude 10° 20:44:59 10° 65° (ENE) 2,968 5.4 -19.2°
Maximum altitude 20:51:32 78° 341° (NNW) 1,133 3.4 -19.8°
Drops below altitude 10° 20:58:04 10° 257° (WSW) 2,964 5.8 -20.4°
Sets 21:00:33 0° 256° (WSW) 3,921 6.5 -20.6°
